Pacific - South Coast: Past 24 Hour Conditions

 

South Hecate Strait - 46185

09:00 AM PDT 02 September 2014Buoy position: 52.43N 129.79W
This table is a summary of hourly weather conditions for the past 24 hours.
Date / Time
(PDT)
Wind(knots) Wave height(m) Wave period(s) Pressure(kPa) Air tempC) Water tempC)
02 September 2014
9:00 NNW 18 gust 21 1.0 15.0 101.5 14 15
8:00 NNW 18 gust 21 0.8 16.0 101.4 14 15
7:00 N 14 gust 18 0.9 16.0 101.4 14 15
6:00 NNW 16 gust 18 1.0 10.0 101.4 14 15
5:00 NNW 14 gust 18 0.9 9.0 101.4 14 15
4:00 NW 10 gust 12 0.9 10.0 101.4 14 15
3:00 WNW 8 gust 10 1.1 10.0 101.4 14 15
2:00 NW 10 gust 14 1.0 14.0 101.4 14 15
1:00 WNW 10 gust 12 1.0 16.0 101.4 15 15
0:00 W 8 gust 10 1.0 16.0 101.5 15 15
01 September 2014
23:00 WNW 12 gust 14 1.0 16.0 101.5 16 15
22:00 W 10 gust 12 1.0 10.0 101.5 16 15
21:00 W 10 gust 14 1.0 10.0 101.5 16 15
20:00 WSW 8 gust 10 1.0 16.0 101.5 16 15
19:00 W 10 gust 12 1.0 10.0 101.5 16 15
18:00 W 12 gust 14 1.1 10.0 101.5 16 15
17:00 WSW 10 gust 12 1.0 10.0 101.5 16 15
16:00 W 14 gust 16 1.1 10.0 101.5 16 15
15:00 WSW 12 gust 14 1.1 10.0 101.5 16 15
14:00 WSW 12 gust 14 1.3 9.0 101.5 16 15
13:00 WSW 14 gust 16 1.2 9.0 101.5 16 15
12:00 WSW 14 gust 16 1.1 11.0 101.5 16 15
11:00 WSW 12 gust 14 1.1 6.0 101.4 16 15
10:00 WSW 14 gust 16 1.2 11.0 101.4 16 15
9:00 WSW 12 gust 16 1.1 6.0 101.3 16 15
 
Map of Pacific - South Coast marine weather areas Tsawwassen Ferry Terminal South Nomad - 46036 Sentry Shoal - 46131 South Brooks - 46132 Halibut Bank - 46146 South Moresby - 46147 South Hecate Strait - 46185 West Sea Otter - 46204 La Perouse Bank - 46206 East Dellwood - 46207 Discovery Island Esquimalt Harbour Kelp Reefs Malahat Race Rocks Lightstation Saturna Island Sheringham Point University of Victoria Victoria Gonzales Victoria Int'l Airport Ballenas Islands Campbell River Airport Comox Airport Entrance Island Fanny Island Nanaimo Airport Port Hardy Airport Sisters Islets Estevan Point Sartine Island Solander Island Tofino Airport Grief Point Powell River Airport Sechelt Cape St.James Bella Bella Airport Bella Coola Airport Cathedral Point Herbert Island Point Atkinson Sand Heads Lightstation Vancouver Harbour Vancouver Int'l Airport West Vancouver Port Alberni Howe Sound - Pam Rocks Squamish Airport